Dewpoint
10 9 10 11 12 7 7 6 5 3 -6 -12 -8 1 4 3 0 -1 -1 0 1 1 -0 4 6 5 5 5 5 5 5 3
7 9 7 12 12 9 8 6 5 1 -9 -11 -4 2 2 3 2 0 -0 1 1 2 3 -0 4 5 4 4 3 3 2 1
8 8 8 11 12 10 9 7 4 -5 -11 -6 1 4 4 4 2 1 1 1 2 3 4 4 2 4 4 3 2 1 -0 -3
11 12 13 11 11 10 8 4 -2 -8 -5 1 3 3 3 2 2 1 1 2 3 4 5 4 5 1 1 0 -1 -1 -3 -4
11 8 12 11 10 9 6 0 -5 -6 -3 1 2 2 3 1 1 1 2 3 3 4 4 5 5 5 1 -4 -3 -3 -4 -4
11 11 9 8 9 7 3 -1 -4 -2 1 3 2 -1 0 -0 1 2 2 3 4 5 5 5 5 6 3 -5 -5 -4 -4 -4
9 11 8 9 10 8 1 -2 -2 -2 1 1 -1 -1 -1 1 0 2 2 4 5 5 5 6 6 6 4 -4 -3 -3 -3 -4
10 10 11 10 8 4 2 2 1 3 1 0 -1 -1 0 -1 2 2 1 4 6 6 6 6 7 5 -3 -2 -2 -3 -3 -4
11 11 10 8 6 6 4 2 -1 1 -0 -0 0 1 0 -0 0 0 2 5 6 7 7 7 5 -3 -1 -2 -2 -1 -1 -3
11 10 9 8 5 5 1 1 3 1 2 4 5 1 0 -1 -0 -0 2 6 7 7 7 5 2 -2 -1 -1 -1 -1 -1 -2
10 10 9 8 6 1 2 3 6 3 3 3 1 6 2 4 4 2 5 7 8 7 6 6 2 -1 -1 -1 -2 -1 1 0
10 9 9 7 3 3 4 3 3 5 4 2 4 3 7 7 7 8 8 8 8 7 7 6 1 -0 -0 -0 -1 -1 2 2
9 8 7 6 5 5 2 3 5 6 4 3 5 7 6 7 7 7 8 8 8 8 7 7 1 0 -0 1 1 1 2 2
9 8 8 8 7 6 5 6 6 4 3 3 4 4 4 4 7 8 8 9 8 8 7 6 1 1 1 1 2 2 2 2
8 7 7 7 5 3 3 3 4 4 2 3 4 3 3 5 6 7 8 8 8 7 6 5 2 1 1 2 2 2 1 1
7 7 6 6 4 3 4 4 3 3 2 2 2 1 3 6 6 8 8 8 8 7 6 5 2 1 1 3 3 2 2 0
5 4 5 5 4 3 4 4 3 4 3 2 -1 -0 2 5 7 8 8 9 9 7 6 5 4 1 2 3 3 2 2 1
3 3 2 3 2 2 2 3 3 3 2 2 4 4 5 6 8 8 8 9 9 8 6 5 5 3 3 4 3 3 2 1
3 5 6 5 5 5 5 5 6 6 6 6 7 5 6 6 7 7 8 8 9 8 8 6 4 3 4 4 4 3 2 -1
4 5 7 8 9 9 7 7 7 7 7 7 6 6 4 4 7 7 8 9 9 8 7 5 5 5 5 5 4 4 0 -0
Wind_Speed
14 24 27 44 35 47 43 39 34 30 30 33 35 35 32 31 31 30 29 28 26 26 23 22 19 14 15 14 11 9 9 10
18 23 21 39 55 48 43 37 33 30 31 34 35 34 32 31 30 28 26 25 23 22 21 19 18 14 12 10 8 7 6 9
20 13 42 33 61 48 41 37 33 32 35 35 36 33 31 29 28 26 24 22 21 19 18 16 15 13 9 7 4 4 5 7
10 11 48 59 46 44 42 38 35 36 36 35 34 33 31 30 27 25 23 22 20 18 16 14 13 12 8 5 3 2 4 6
14 14 23 44 43 42 39 36 37 37 37 36 35 32 29 28 27 26 24 21 19 18 14 14 12 9 6 4 2 1 2 5
18 23 27 22 35 35 37 39 38 38 36 35 34 29 30 28 28 25 23 20 19 16 14 10 10 7 3 2 3 1 2 3
24 24 31 33 37 38 35 37 37 36 36 35 31 30 27 29 26 24 22 20 18 15 12 10 7 4 3 4 3 2 1 3
23 25 27 34 38 41 43 42 39 37 38 33 31 28 29 26 25 23 21 19 17 14 11 9 8 6 7 5 3 1 1 3
27 33 36 40 40 40 41 41 40 37 33 30 27 27 26 23 22 20 20 19 17 15 13 12 9 9 6 4 2 1 4 4
33 38 41 43 42 43 41 36 35 36 30 27 22 22 23 22 22 20 20 20 16 14 15 12 11 9 7 3 1 3 4 4
34 36 38 40 41 45 39 40 36 35 35 30 30 22 22 22 20 21 21 19 16 17 14 11 10 11 7 5 3 3 5 5
32 37 38 38 39 39 40 42 37 34 35 35 25 30 21 23 20 17 18 20 20 19 15 13 13 12 11 9 9 7 7 8
23 32 32 38 37 39 43 41 38 36 33 30 30 26 23 20 19 21 24 24 23 22 20 19 18 17 15 13 13 12 12 13
23 27 31 36 35 35 41 37 38 34 34 33 29 27 21 20 24 23 27 27 26 26 25 25 23 22 22 18 12 15 15 17
27 28 33 32 31 34 35 36 34 36 35 32 31 33 27 24 25 26 27 29 29 28 27 27 25 26 25 19 10 10 12 14
32 33 32 33 33 37 35 38 36 36 37 34 35 31 28 26 28 30 29 31 29 28 28 27 27 29 28 26 23 16 11 10
33 32 33 36 36 36 33 36 37 34 36 35 33 31 29 27 30 31 34 32 30 29 30 29 29 31 31 28 25 21 17 17
37 35 34 35 38 37 37 36 37 37 36 33 34 32 32 33 33 35 34 34 33 30 31 31 31 32 31 29 26 22 20 19
43 39 37 36 36 36 37 37 35 33 32 33 33 36 38 36 34 36 38 37 34 32 32 34 33 33 28 26 25 24 24 21
45 43 40 39 38 37 38 37 36 33 33 34 34 34 36 37 36 36 39 38 35 33 36 36 33 32 29 25 26 23 20 16
Wind_Direction
191 202 232 228 209 182 177 173 166 158 156 156 155 153 150 146 145 142 139 137 135 133 133 139 130 113 106 106 100 84 60 42
248 245 236 217 196 178 172 167 164 159 157 156 155 156 152 147 146 143 140 140 140 136 133 133 146 144 117 110 99 77 45 34
247 228 241 227 171 169 167 166 161 159 155 156 156 155 151 148 145 143 142 142 143 141 137 141 144 154 149 136 123 84 45 37
117 52 134 154 159 161 163 160 159 157 156 155 154 153 151 149 147 148 149 148 146 148 148 154 153 148 148 149 157 90 38 34
126 128 101 137 152 157 159 157 157 156 157 156 154 147 147 151 153 158 156 154 156 161 166 159 148 137 130 127 166 63 28 19
149 143 153 161 160 157 158 159 157 157 157 154 148 146 158 162 164 163 161 160 171 169 164 168 158 141 112 215 203 285 336 345
160 162 153 169 167 164 163 158 158 155 155 153 154 157 170 167 168 165 168 168 178 168 173 177 177 167 217 207 201 240 299 305
176 176 173 168 167 167 165 161 156 156 156 153 166 169 175 171 169 172 176 179 180 183 187 187 192 197 198 189 197 245 301 301
185 182 174 169 167 164 161 161 163 166 162 165 165 171 176 172 179 181 183 187 189 193 194 194 201 193 187 193 166 61 341 323
187 180 171 169 167 167 166 167 164 165 167 161 161 172 178 180 187 189 193 194 194 204 201 197 201 199 194 202 207 344 341 337
178 179 184 180 172 176 178 172 166 169 173 169 178 178 185 190 190 200 199 197 207 209 206 214 216 209 207 233 263 306 316 316
193 176 184 183 174 175 178 171 172 179 175 184 183 187 200 196 194 200 206 214 214 213 217 219 221 221 219 236 245 260 277 294
197 190 185 184 191 188 186 193 187 183 181 199 191 196 202 200 203 216 222 220 215 217 219 227 215 214 218 225 230 244 259 266
194 190 188 184 183 186 180 186 188 192 191 195 197 196 209 215 218 218 221 219 214 218 228 222 216 216 217 223 231 239 244 242
196 188 184 190 190 181 182 193 201 194 195 200 204 207 212 221 225 224 224 219 222 227 227 225 221 219 222 220 209 220 229 237
195 194 193 192 187 186 189 191 193 202 205 211 206 213 219 221 227 228 228 225 230 237 232 227 226 228 224 224 230 240 220 221
185 184 187 186 188 188 189 195 199 199 204 214 222 224 229 231 230 234 230 227 236 240 233 231 233 232 232 230 230 233 243 240
189 188 189 188 191 193 197 203 208 214 218 222 227 229 229 227 226 230 234 233 235 237 238 240 241 238 232 236 239 241 250 248
195 196 197 199 205 210 213 215 216 220 223 226 229 226 225 227 229 232 235 237 238 239 243 241 241 232 229 228 238 249 255 247
200 203 205 206 210 214 217 220 222 225 228 233 232 233 235 233 230 233 235 236 237 238 236 237 233 234 228 229 243 250 244 248
Height
1490 1492 1492 1493 1499 1504 1510 1517 1520 1521 1523 1528 1532 1539 1544 1548 1552 1555 1558 1561 1565 1568 1570 1571 1572 1571 1572 1574 1575 1577 1576 1576
1488 1484 1479 1487 1487 1501 1504 1513 1520 1520 1522 1527 1534 1539 1544 1549 1554 1557 1559 1563 1567 1569 1571 1572 1574 1573 1574 1576 1576 1578 1578 1578
1475 1465 1461 1461 1473 1494 1502 1514 1519 1520 1522 1529 1534 1540 1545 1551 1554 1558 1562 1565 1568 1571 1572 1574 1576 1574 1576 1577 1578 1580 1580 1580
1469 1462 1445 1443 1478 1492 1506 1509 1515 1519 1524 1529 1534 1539 1545 1551 1554 1558 1562 1566 1567 1570 1572 1573 1578 1576 1578 1579 1580 1580 1581 1581
1478 1469 1458 1470 1486 1495 1503 1507 1513 1517 1525 1529 1534 1539 1548 1551 1555 1558 1562 1565 1567 1570 1571 1576 1577 1577 1577 1579 1581 1581 1581 1582
1479 1477 1479 1486 1492 1497 1503 1508 1511 1519 1525 1529 1534 1539 1549 1553 1555 1559 1562 1563 1567 1569 1572 1576 1577 1577 1576 1578 1580 1581 1581 1581
1479 1480 1479 1485 1491 1494 1505 1510 1518 1522 1527 1530 1535 1541 1549 1552 1556 1559 1561 1563 1568 1569 1572 1574 1577 1577 1578 1578 1579 1580 1580 1581
1481 1485 1485 1487 1493 1500 1505 1510 1516 1522 1526 1530 1537 1542 1548 1551 1555 1558 1560 1563 1567 1569 1571 1573 1575 1576 1578 1578 1579 1579 1579 1580
1480 1484 1487 1492 1497 1505 1510 1512 1514 1524 1529 1532 1537 1542 1547 1549 1554 1556 1558 1562 1566 1568 1570 1572 1575 1576 1576 1576 1578 1579 1579 1579
1481 1484 1487 1494 1499 1508 1513 1515 1521 1524 1529 1532 1538 1542 1546 1549 1552 1554 1558 1561 1564 1567 1569 1570 1573 1574 1575 1576 1577 1578 1578 1577
1483 1487 1491 1495 1501 1507 1512 1515 1518 1521 1527 1532 1538 1542 1545 1548 1551 1553 1557 1559 1561 1565 1568 1569 1570 1572 1574 1576 1576 1576 1576 1576
1487 1489 1494 1500 1503 1506 1509 1512 1518 1522 1527 1533 1539 1541 1544 1548 1549 1552 1555 1558 1561 1563 1566 1567 1569 1571 1573 1574 1574 1574 1574 1574
1489 1492 1496 1501 1503 1507 1509 1514 1518 1522 1527 1533 1537 1542 1544 1545 1547 1550 1553 1555 1558 1562 1563 1564 1566 1568 1570 1571 1572 1572 1571 1571
1487 1491 1493 1499 1500 1504 1508 1512 1516 1523 1527 1531 1535 1538 1540 1541 1543 1546 1549 1552 1554 1556 1558 1559 1561 1564 1566 1567 1568 1569 1567 1567
1485 1488 1493 1497 1501 1504 1510 1513 1519 1523 1523 1527 1531 1535 1537 1539 1541 1543 1545 1548 1550 1552 1554 1555 1556 1558 1561 1563 1563 1563 1563 1563
1487 1490 1493 1497 1501 1506 1509 1511 1513 1518 1521 1525 1527 1531 1534 1536 1537 1539 1543 1545 1548 1549 1551 1551 1553 1554 1556 1556 1556 1558 1558 1559
1487 1489 1494 1497 1501 1505 1506 1510 1514 1517 1522 1523 1525 1528 1529 1532 1534 1536 1538 1540 1543 1544 1545 1546 1548 1550 1551 1552 1553 1554 1554 1554
1485 1488 1493 1496 1500 1503 1505 1507 1511 1515 1516 1516 1520 1522 1524 1527 1529 1530 1532 1535 1536 1538 1540 1541 1542 1544 1546 1549 1550 1551 1549 1550
1479 1483 1486 1491 1495 1498 1500 1502 1506 1507 1509 1511 1513 1515 1517 1519 1522 1524 1526 1529 1531 1534 1535 1536 1537 1538 1542 1543 1545 1547 1547 1546
1472 1475 1480 1483 1486 1489 1493 1497 1498 1499 1501 1504 1506 1508 1510 1514 1516 1518 1521 1524 1526 1528 1528 1530 1530 1534 1533 1535 1539 1539 1543 1543